Location: Leiter
(44.7178°N, 106.2687°W)
Time: 21:35:51
(UTC+00:00)

ESTCUBE 1 - Pass Details

Date: 28 June 2022
Orbit: 646 x 657 km, 97.9° (Epoch: 07 August)

Event Time Altitude Azimuth Distance (km) Brightness Sun altitude
Exits shadow 03:55:00 - 108° (ESE) 2,179 ? -9.0°
Reaches altitude 10° 03:55:29 10° 103° (ESE) 2,045 ? -9.0°
Maximum altitude 03:58:23 17° 63° (ENE) 1,614 ? -9.4°
Drops below altitude 10° 04:01:18 10° 22° (NNE) 2,057 ? -9.7°
Sets 04:04:09 0° 3° (N) 2,974 ? -10.1°
